カタログに戻る

DELTA 2 DEB

運用中HEO
NORAD 26851·DEBRIS·🇺🇸 United States

打ち上げ Sep 9, 1992 から Cape Canaveral Space Force Station

Loading…

次のパス (今後24時間)

TLE

最新Source: Space-Track

元期: Sep 14, 2026, 01:32 UTC

1 26851U 92058E   26257.06430056  .00019448  00000-0  50568-3 0  9995
2 26851  34.8220 177.7099 3552217  79.2203 318.1327  8.34990252669885

AllMySatでDELTA 2 DEBをリアルタイム追跡

Download on the App Store